FW6147 Weather Reports


time (UTC)temp
C
wind
direction
speed
KPH
gust
KPH
rain 1hr
cm
rain 24hr
cm
rain mn
cm
humidity
%
barometer
mb
20260904060556 19 116 4.8 8.0 0.00 0.00 0.00 86 1020.6
20260904060113 19 115 4.8 6.4 0.00 0.00 0.00 85 1020.7
20260904055554 20 58 0.0 3.2 0.00 0.00 0.00 85 1020.6
20260904055055 20 0 0.0 3.2 0.00 0.00 0.00 85 1020.5
20260904054606 20 0 0.0 3.2 0.00 0.00 0.00 85 1020.5
20260904054055 20 0 0.0 1.6 0.00 0.00 0.00 85 1020.6
20260904053555 20 0 0.0 1.6 0.00 0.00 0.00 85 1020.6
20260904053105 20 0 0.0 4.8 0.00 0.00 0.00 84 1020.7
20260904052555 20 0 0.0 4.8 0.00 0.00 0.00 84 1020.6
20260904052055 20 0 0.0 0.0 0.00 0.00 0.00 84 1020.6
20260904051601 20 0 0.0 0.0 0.00 0.00 0.00 84 1020.7
20260904051055 20 0 0.0 0.0 0.00 0.00 0.00 84 1020.7
20260904050554 20 0 0.0 0.0 0.00 0.00 0.00 84 1020.7
20260904050105 20 0 0.0 0.0 0.00 0.00 0.00 84 1020.9
20260904045555 20 0 0.0 0.0 0.00 0.00 0.00 83 1021.0
20260904045054 20 0 0.0 0.0 0.00 0.00 0.00 84 1021.2
20260904044600 21 0 0.0 0.0 0.00 0.00 0.00 83 1021.3
20260904044056 21 0 0.0 0.0 0.00 0.00 0.00 83 1021.3
20260904043554 21 0 0.0 0.0 0.00 0.00 0.00 83 1021.1
20260904043107 21 0 0.0 0.0 0.00 0.00 0.00 83 1021.1
20260904042559 21 0 0.0 0.0 0.00 0.00 0.00 83 1021.2
20260904042054 21 0 0.0 0.0 0.00 0.00 0.00 82 1021.2
20260904041606 21 0 0.0 0.0 0.00 0.00 0.00 81 1021.3
20260904041055 21 0 0.0 0.0 0.00 0.00 0.00 82 1021.1
20260904040555 21 0 0.0 0.0 0.00 0.00 0.00 82 1021.2
20260904040104 21 0 0.0 0.0 0.00 0.00 0.00 81 1021.1
20260904035555 21 0 0.0 0.0 0.00 0.00 0.00 82 1021.0
20260904035054 21 0 0.0 0.0 0.00 0.00 0.00 82 1021.0
20260904034600 21 0 0.0 0.0 0.00 0.00 0.00 82 1021.0
20260904034055 21 0 0.0 0.0 0.00 0.00 0.00 82 1021.0
20260904033555 21 0 0.0 0.0 0.00 0.00 0.00 82 1021.0
20260904033105 21 0 0.0 0.0 0.00 0.00 0.00 83 1021.0
20260904032554 21 0 0.0 0.0 0.00 0.00 0.00 83 1020.8
20260904032055 21 0 0.0 3.2 0.00 0.00 0.00 82 1020.7
20260904031603 21 0 0.0 4.8 0.00 0.00 0.00 82 1020.6
20260904031056 21 58 1.6 4.8 0.00 0.00 0.00 82 1020.6
20260904030555 21 58 3.2 4.8 0.00 0.00 0.00 82 1020.4
20260904030105 21 23 0.0 4.8 0.00 0.00 0.00 82 1020.2
20260904025557 21 0 0.0 0.0 0.00 0.00 0.00 82 1020.2
20260904025057 21 0 0.0 0.0 0.00 0.00 0.00 82 1020.2
20260904024602 21 0 0.0 4.8 0.00 0.00 0.00 82 1020.1
20260904024056 21 0 0.0 4.8 0.00 0.00 0.00 82 1020.1
20260904023554 21 1 1.6 4.8 0.00 0.00 0.00 82 1020.0
20260904023105 21 0 0.0 6.4 0.00 0.00 0.00 81 1019.9
20260904022555 21 1 1.6 6.4 0.00 0.00 0.00 80 1019.9
20260904022055 21 1 3.2 6.4 0.00 0.00 0.00 79 1019.9
20260904021606 21 359 0.0 4.8 0.00 0.00 0.00 79 1019.6
20260904021054 21 0 0.0 0.0 0.00 0.00 0.00 78 1019.7
20260904020557 21 0 0.0 0.0 0.00 0.00 0.00 78 1019.8
20260904020101 21 0 0.0 0.0 0.00 0.00 0.00 79 1019.7
20260904015555 21 0 0.0 0.0 0.00 0.00 0.00 78 1019.6
20260904015055 22 0 0.0 0.0 0.00 0.00 0.00 78 1019.6
20260904014608 22 0 0.0 0.0 0.00 0.00 0.00 78 1019.5
20260904014055 22 0 0.0 0.0 0.00 0.00 0.00 78 1019.4
20260904013556 22 0 0.0 0.0 0.00 0.00 0.00 78 1019.5
20260904013114 22 0 0.0 4.8 0.00 0.00 0.00 78 1019.5
20260904012555 22 0 0.0 8.0 0.00 0.00 0.00 78 1019.6
20260904012055 22 359 1.6 9.7 0.00 0.00 0.00 77 1019.5
20260904011601 22 360 1.6 9.7 0.00 0.00 0.00 77 1019.5
20260904011053 22 360 4.8 9.7 0.00 0.00 0.00 76 1019.5
20260904010554 22 333 3.2 4.8 0.00 0.00 0.00 75 1019.5
20260904010107 23 0 0.0 3.2 0.00 0.00 0.00 74 1019.3
20260904005554 23 0 0.0 4.8 0.00 0.00 0.00 74 1019.3
20260904005055 23 333 1.6 6.4 0.00 0.00 0.00 73 1019.6
20260904004603 23 333 1.6 6.4 0.00 0.00 0.00 71 1019.5
20260904004056 23 330 1.6 6.4 0.00 0.00 0.00 70 1019.5
20260904003555 24 311 3.2 12.9 0.00 0.00 0.00 69 1019.5
20260904003116 24 296 4.8 14.5 0.00 0.00 0.00 68 1019.4
20260904002554 24 314 8.0 17.7 0.00 0.00 0.00 66 1019.3
20260904002055 25 273 11.3 17.7 0.00 0.00 0.00 64 1019.4
20260904001605 26 289 8.0 17.7 0.00 0.00 0.00 59 1019.5
20260904001055 26 0 1.6 11.3 0.00 0.00 0.00 56 1019.3
20260904000555 26 290 4.8 11.3 0.00 0.00 0.00 56 1019.2
20260904000104 25 273 3.2 9.7 0.00 0.00 0.00 58 1019.2
20260903235555 24 254 4.8 9.7 0.00 0.00 0.00 63 1019.1
20260903235052 23 248 4.8 14.5 0.00 0.00 0.00 64 1019.1
20260903234604 23 252 3.2 14.5 0.00 0.00 0.00 64 1019.0
20260903234056 23 260 6.4 14.5 0.00 0.00 0.00 66 1019.1
20260903233556 24 241 4.8 20.9 0.00 0.00 0.00 69 1019.2
20260903233103 23 257 3.2 20.9 0.00 0.00 0.00 69 1019.4
20260903232552 23 295 11.3 24.1 0.00 0.00 0.00 69 1019.2
20260903232055 23 301 12.9 24.1 0.00 0.00 0.00 68 1019.2
20260903231600 23 344 12.9 20.9 0.00 0.00 0.00 71 1019.2
20260903231054 23 319 11.3 19.3 0.00 0.00 0.00 70 1019.1
20260903230556 23 288 9.7 20.9 0.00 0.00 0.00 69 1019.1
20260903230107 23 319 12.9 20.9 0.00 0.00 0.00 67 1019.0
20260903225553 24 295 8.0 17.7 0.00 0.00 0.00 67 1019.1
20260903225052 24 295 11.3 16.1 0.00 0.00 0.00 68 1019.1
20260903224610 23 276 8.0 19.3 0.00 0.00 0.00 68 1019.2
20260903224055 23 313 8.0 19.3 0.00 0.00 0.00 67 1019.1
20260903223557 23 300 11.3 16.1 0.00 0.00 0.00 69 1019.3
20260903223104 24 285 11.3 16.1 0.00 0.00 0.00 69 1019.2
20260903222553 24 296 4.8 11.3 0.00 0.00 0.00 71 1019.1
20260903222053 24 258 3.2 11.3 0.00 0.00 0.00 76 1019.0
20260903221604 23 235 1.6 11.3 0.00 0.00 0.00 76 1019.1
20260903221054 23 243 4.8 11.3 0.00 0.00 0.00 74 1018.8
20260903220554 23 255 6.4 11.3 0.00 0.00 0.00 72 1018.8
20260903220120 25 285 4.8 9.7 0.00 0.00 0.00 70 1018.8
20260903215556 25 248 4.8 8.0 0.00 0.00 0.00 68 1019.1
20260903215055 26 248 4.8 9.7 0.00 0.00 0.00 65 1019.1
20260903214600 26 271 4.8 9.7 0.00 0.00 0.00 64 1019.3
20260903214055 27 216 1.6 9.7 0.00 0.00 0.00 58 1019.3
20260903213554 27 188 1.6 9.7 0.00 0.00 0.00 54 1019.3
20260903213104 28 219 0.0 3.2 0.00 0.00 0.00 54 1019.1
20260903212553 28 0 0.0 6.4 0.00 0.00 0.00 50 1019.1
20260903212055 28 177 1.6 8.0 0.00 0.00 0.00 50 1019.2
20260903211604 28 186 0.0 8.0 0.00 0.00 0.00 49 1019.3
20260903211053 28 238 3.2 8.0 0.00 0.00 0.00 51 1019.3
20260903210552 29 209 1.6 6.4 0.00 0.00 0.00 46 1019.3
20260903210103 29 194 1.6 6.4 0.00 0.00 0.00 46 1019.4
20260903205556 29 162 1.6 8.0 0.00 0.00 0.00 46 1019.5
20260903205058 29 0 3.2 9.7 0.00 0.00 0.00 46 1019.4
20260903204600 28 0 1.6 11.3 0.00 0.00 0.00 46 1019.4
20260903204055 28 174 4.8 11.3 0.00 0.00 0.00 45 1019.5
20260903203555 28 327 1.6 6.4 0.00 0.00 0.00 46 1019.5
20260903203100 28 188 1.6 8.0 0.00 0.00 0.00 46 1019.6
20260903202558 28 0 1.6 8.0 0.00 0.00 0.00 46 1019.6
20260903202055 28 256 3.2 8.0 0.00 0.00 0.00 45 1019.7
20260903201606 28 231 1.6 12.9 0.00 0.00 0.00 46 1019.8
20260903201052 28 244 3.2 12.9 0.00 0.00 0.00 47 1019.9
20260903200555 28 164 6.4 12.9 0.00 0.00 0.00 46 1020.0
20260903200109 28 167 1.6 16.1 0.00 0.00 0.00 47 1020.1
20260903195552 28 172 6.4 17.7 0.00 0.00 0.00 46 1020.1
20260903195052 28 146 8.0 20.9 0.00 0.00 0.00 46 1020.1
20260903194603 28 173 9.7 20.9 0.00 0.00 0.00 47 1020.3
20260903194053 28 180 6.4 16.1 0.00 0.00 0.00 47 1020.3
20260903193555 29 156 8.0 16.1 0.00 0.00 0.00 46 1020.3
20260903193107 29 127 3.2 11.3 0.00 0.00 0.00 45 1020.4
20260903192555 29 82 3.2 11.3 0.00 0.00 0.00 45 1020.4
20260903192054 28 94 4.8 11.3 0.00 0.00 0.00 45 1020.4
20260903191604 28 285 1.6 11.3 0.00 0.00 0.00 46 1020.6
20260903191053 28 0 4.8 11.3 0.00 0.00 0.00 46 1020.6
20260903190552 28 176 4.8 11.3 0.00 0.00 0.00 47 1020.8
20260903185552 28 174 3.2 12.9 0.00 0.00 0.00 46 1020.9
20260903185052 28 105 6.4 16.1 0.00 0.00 0.00 46 1020.9
20260903184602 28 129 8.0 16.1 0.00 0.00 0.00 46 1020.9
20260903184057 28 48 3.2 8.0 0.00 0.00 0.00 46 1021.1
20260903183555 28 49 4.8 11.3 0.00 0.00 0.00 48 1021.0
20260903183102 28 7 4.8 11.3 0.00 0.00 0.00 48 1021.2
20260903182552 28 17 6.4 11.3 0.00 0.00 0.00 47 1021.3
20260903182059 28 18 4.8 9.7 0.00 0.00 0.00 47 1021.5
20260903181604 28 42 3.2 9.7 0.00 0.00 0.00 49 1021.6
20260903181055 28 355 4.8 12.9 0.00 0.00 0.00 47 1021.7
20260903180558 28 339 6.4 12.9 0.00 0.00 0.00 47 1021.9
20260903180110 28 29 3.2 9.7 0.00 0.00 0.00 50 1022.0
20260903175558 28 25 4.8 11.3 0.00 0.00 0.00 50 1022.0
20260903175053 28 1 3.2 11.3 0.00 0.00 0.00 50 1022.0
20260903174603 27 359 4.8 11.3 0.00 0.00 0.00 52 1022.0
20260903174055 27 352 6.4 11.3 0.00 0.00 0.00 50 1022.1
20260903173552 27 32 3.2 9.7 0.00 0.00 0.00 52 1022.2
20260903173101 27 3 3.2 11.3 0.00 0.00 0.00 52 1022.1
20260903172554 27 59 3.2 11.3 0.00 0.00 0.00 52 1022.2
20260903172058 26 46 8.0 11.3 0.00 0.00 0.00 53 1022.3
20260903171612 26 215 1.6 8.0 0.00 0.00 0.00 53 1022.3
20260903171058 26 243 3.2 9.7 0.00 0.00 0.00 53 1022.3
20260903170555 26 0 4.8 12.9 0.00 0.00 0.00 53 1022.3
20260903170110 26 124 4.8 12.9 0.00 0.00 0.00 53 1022.3
20260903165556 26 129 6.4 11.3 0.00 0.00 0.00 54 1022.3
20260903165052 26 37 1.6 11.3 0.00 0.00 0.00 57 1022.2
20260903164602 26 52 4.8 11.3 0.00 0.00 0.00 57 1022.2
20260903164055 26 42 3.2 8.0 0.00 0.00 0.00 59 1022.3
20260903163555 25 53 4.8 8.0 0.00 0.00 0.00 61 1022.1
20260903163102 25 8 3.2 8.0 0.00 0.00 0.00 62 1022.3
20260903162555 25 358 3.2 8.0 0.00 0.00 0.00 62 1022.2
20260903162055 25 354 3.2 6.4 0.00 0.00 0.00 63 1022.3
20260903161608 25 354 1.6 4.8 0.00 0.00 0.00 64 1022.2
20260903161055 24 354 1.6 6.4 0.00 0.00 0.00 64 1022.3
20260903160555 24 354 3.2 6.4 0.00 0.00 0.00 63 1022.3
20260903160105 24 354 3.2 8.0 0.00 0.00 0.00 65 1022.3
20260903155551 23 355 3.2 8.0 0.00 0.00 0.00 67 1022.3
20260903155054 23 354 0.0 4.8 0.00 0.00 0.00 67 1022.3
20260903154604 23 354 1.6 4.8 0.00 0.00 0.00 68 1022.3
20260903154056 23 353 1.6 4.8 0.00 0.00 0.00 68 1022.2
20260903153557 23 353 1.6 4.8 0.00 0.00 0.00 68 1022.2
20260903153103 23 336 1.6 4.8 0.00 0.00 0.00 69 1022.1
20260903152552 23 328 1.6 4.8 0.00 0.00 0.00 68 1022.2
20260903152057 23 323 1.6 4.8 0.00 0.00 0.00 69 1022.2
20260903151612 23 0 0.0 3.2 0.00 0.00 0.00 69 1022.2
20260903151055 23 321 1.6 3.2 0.00 0.00 0.00 70 1022.2
20260903150556 22 321 1.6 3.2 0.00 0.00 0.00 69 1022.2
20260903150106 22 0 0.0 4.8 0.00 0.00 0.00 71 1022.3
20260903145555 22 320 1.6 4.8 0.00 0.00 0.00 70 1022.3
20260903145055 22 319 1.6 4.8 0.00 0.00 0.00 70 1022.3
20260903144608 22 294 0.0 4.8 0.00 0.00 0.00 70 1022.2
20260903144055 22 0 1.6 6.4 0.00 0.00 0.00 69 1022.2
20260903143554 22 294 0.0 6.4 0.00 0.00 0.00 69 1022.3
20260903143110 22 294 1.6 6.4 0.00 0.00 0.00 69 1022.2
20260903142556 22 0 0.0 6.4 0.00 0.00 0.00 69 1022.3
20260903142055 22 160 1.6 8.0 0.00 0.00 0.00 70 1022.4
20260903141601 22 158 3.2 11.3 0.00 0.00 0.00 70 1022.3
20260903141055 22 174 4.8 11.3 0.00 0.00 0.00 71 1022.2
20260903140556 22 170 6.4 11.3 0.00 0.00 0.00 71 1022.2
20260903140105 21 173 6.4 12.9 0.00 0.00 0.00 72 1022.1
20260903135555 21 155 6.4 14.5 0.00 0.00 0.00 73 1022.1
20260903135055 21 150 8.0 14.5 0.00 0.00 0.00 74 1022.1
20260903134610 21 148 9.7 14.5 0.00 0.00 0.00 74 1022.0
20260903134054 20 152 6.4 14.5 0.00 0.00 0.00 75 1022.1
20260903133555 20 145 6.4 14.5 0.00 0.00 0.00 76 1022.0
20260903133109 20 141 6.4 11.3 0.00 0.00 0.00 76 1022.0
20260903132555 20 148 6.4 9.7 0.00 0.00 0.00 76 1022.0
20260903132056 20 151 4.8 12.9 0.00 0.00 0.00 76 1021.9
20260903131608 20 171 6.4 12.9 0.00 0.00 0.00 76 1021.9
20260903131055 20 162 8.0 12.9 0.00 0.00 0.00 76 1021.8
20260903130554 20 149 6.4 11.3 0.00 0.00 0.00 76 1021.7
20260903130111 20 139 6.4 12.9 0.00 0.00 0.00 76 1021.6
20260903125556 20 133 6.4 12.9 0.00 0.00 0.00 76 1021.6
20260903125056 20 119 6.4 12.9 0.00 0.00 0.00 76 1021.6
20260903124610 20 127 8.0 12.9 0.00 0.00 0.00 76 1021.6
20260903124056 20 122 4.8 11.3 0.00 0.00 0.00 76 1021.5
20260903123557 20 125 4.8 9.7 0.00 0.00 0.00 75 1021.5
20260903123104 20 126 4.8 17.7 0.00 0.00 0.00 75 1021.4
20260903122555 20 134 6.4 17.7 0.00 0.00 0.00 75 1021.5
20260903122056 20 148 9.7 17.7 0.00 0.00 0.00 75 1021.4
20260903121604 20 158 9.7 16.1 0.00 0.00 0.00 74 1021.5
20260903121055 20 155 9.7 17.7 0.00 0.00 0.00 74 1021.5
20260903120558 20 148 9.7 17.7 0.00 0.00 0.00 74 1021.5
20260903120106 20 123 8.0 17.7 0.00 0.00 0.00 74 1021.5
20260903115555 21 162 9.7 19.3 0.00 0.00 0.00 73 1021.5
20260903115054 21 132 11.3 19.3 0.00 0.00 0.00 73 1021.4
20260903114611 21 155 12.9 19.3 0.00 0.00 0.00 73 1021.4
20260903114057 21 153 12.9 19.3 0.00 0.00 0.00 73 1021.3
20260903113601 21 161 9.7 16.1 0.00 0.00 0.00 73 1021.4
20260903113112 21 139 11.3 17.7 0.00 0.00 0.00 74 1021.3
20260903112556 21 146 11.3 17.7 0.00 0.00 0.00 74 1021.3
20260903112059 21 153 11.3 20.9 0.00 0.00 0.00 74 1021.3
20260903111601 21 126 12.9 20.9 0.00 0.00 0.00 75 1021.3
20260903111057 21 136 11.3 17.7 0.00 0.00 0.00 75 1021.1
20260903110554 22 136 8.0 12.9 0.00 0.00 0.00 75 1021.1
20260903110107 22 146 8.0 12.9 0.00 0.00 0.00 75 1021.0
20260903105559 22 123 6.4 11.3 0.00 0.00 0.00 74 1021.0
20260903105057 22 130 4.8 9.7 0.00 0.00 0.00 73 1021.0
20260903104607 22 122 6.4 9.7 0.00 0.00 0.00 74 1021.0
20260903104054 22 103 4.8 8.0 0.00 0.00 0.00 74 1021.1
20260903103556 22 47 1.6 8.0 0.00 0.00 0.00 74 1021.1
20260903103104 22 44 4.8 11.3 0.00 0.00 0.00 74 1021.0
20260903102557 22 3 6.4 11.3 0.00 0.00 0.00 74 1021.1
20260903102055 22 15 0.0 8.0 0.00 0.00 0.00 73 1021.1
20260903101611 22 0 0.0 1.6 0.00 0.00 0.00 73 1021.0
20260903101056 22 0 0.0 1.6 0.00 0.00 0.00 72 1021.2
20260903100556 22 0 0.0 1.6 0.00 0.00 0.00 72 1021.2
20260903095555 22 0 0.0 8.0 0.00 0.00 0.00 71 1021.1
20260903095056 22 0 3.2 8.0 0.00 0.00 0.00 72 1021.1
20260903094609 22 123 0.0 4.8 0.00 0.00 0.00 71 1021.2
20260903094056 22 0 0.0 0.0 0.00 0.00 0.00 70 1021.2
20260903093559 22 0 0.0 3.2 0.00 0.00 0.00 69 1021.2
20260903093107 23 0 0.0 4.8 0.00 0.00 0.00 69 1021.1
20260903092600 23 0 1.6 4.8 0.00 0.00 0.00 69 1021.3
20260903092056 23 123 1.6 4.8 0.00 0.00 0.00 69 1021.3
20260903091607 23 123 0.0 3.2 0.00 0.00 0.00 69 1021.4
20260903091053 23 123 0.0 3.2 0.00 0.00 0.00 69 1021.3
20260903090611 23 123 1.6 4.8 0.00 0.00 0.00 69 1021.3
20260903090105 23 123 0.0 4.8 0.00 0.00 0.00 69 1021.3
20260903085555 23 0 0.0 4.8 0.00 0.00 0.00 69 1021.4
20260903085053 23 0 0.0 4.8 0.00 0.00 0.00 69 1021.5
20260903084604 23 123 0.0 4.8 0.00 0.00 0.00 69 1021.4
20260903084056 22 123 1.6 4.8 0.00 0.00 0.00 69 1021.5
20260903083553 22 123 1.6 4.8 0.00 0.00 0.00 69 1021.6
20260903083104 22 0 0.0 1.6 0.00 0.00 0.00 70 1021.7
20260903082555 22 0 0.0 0.0 0.00 0.00 0.00 70 1021.7
20260903082055 22 0 0.0 0.0 0.00 0.00 0.00 69 1021.9
20260903081601 22 0 0.0 0.0 0.00 0.00 0.00 69 1021.9
20260903081056 22 0 0.0 4.8 0.00 0.00 0.00 70 1021.8
20260903080556 23 0 0.0 4.8 0.00 0.00 0.00 71 1021.8
20260903075554 23 0 0.0 6.4 0.00 0.00 0.00 70 1021.9
20260903075054 23 0 0.0 6.4 0.00 0.00 0.00 70 1021.8
20260903074603 23 0 1.6 4.8 0.00 0.00 0.00 69 1021.9
20260903074056 23 123 1.6 6.4 0.00 0.00 0.00 68 1021.8
20260903073555 23 123 3.2 6.4 0.00 0.00 0.00 69 1021.9
20260903073105 23 123 3.2 4.8 0.00 0.00 0.00 68 1021.9
20260903072556 23 123 3.2 6.4 0.00 0.00 0.00 68 1021.9
20260903072055 23 123 3.2 6.4 0.00 0.00 0.00 68 1022.0
20260903071604 23 123 3.2 4.8 0.00 0.00 0.00 68 1021.9
20260903071059 23 123 0.0 4.8 0.00 0.00 0.00 68 1022.0
20260903070556 23 0 0.0 1.6 0.00 0.00 0.00 67 1022.0
20260903070105 23 0 0.0 1.6 0.00 0.00 0.00 66 1021.9
20260903065554 23 0 0.0 3.2 0.00 0.00 0.00 66 1022.0
20260903065057 23 0 0.0 3.2 0.00 0.00 0.00 65 1021.8
20260903064603 23 123 0.0 3.2 0.00 0.00 0.00 65 1021.9
20260903064055 24 0 0.0 4.8 0.00 0.00 0.00 65 1021.8
20260903063554 24 123 0.0 6.4 0.00 0.00 0.00 65 1021.7
20260903063104 24 123 3.2 6.4 0.00 0.00 0.00 64 1021.7
20260903062556 24 123 1.6 8.0 0.00 0.00 0.00 64 1021.7
20260903062056 24 123 3.2 8.0 0.00 0.00 0.00 64 1021.6
20260903061617 24 123 3.2 8.0 0.00 0.00 0.00 64 1021.6
20260903061054 24 122 4.8 11.3 0.00 0.00 0.00 64 1021.6